Year,Month,Day,Hour,Minute,Value (Times are PST for temperature in C)
2015,02,06,00,00,10.40
2015,02,06,00,01,10.40
2015,02,06,00,02,10.40
2015,02,06,00,03,10.40
2015,02,06,00,04,10.40
2015,02,06,00,05,10.40
2015,02,06,00,06,10.40
2015,02,06,00,07,10.40
2015,02,06,00,08,10.40
2015,02,06,00,09,10.40
2015,02,06,00,10,10.40
2015,02,06,00,11,10.40
2015,02,06,00,12,10.40
2015,02,06,00,13,10.40
2015,02,06,00,14,10.40
2015,02,06,00,15,10.40
2015,02,06,00,16,10.40
2015,02,06,00,17,10.40
2015,02,06,00,18,10.40
2015,02,06,00,19,10.40
2015,02,06,00,20,10.40
2015,02,06,00,21,10.50
2015,02,06,00,22,10.50
2015,02,06,00,23,10.50
2015,02,06,00,24,10.50
2015,02,06,00,25,10.40
2015,02,06,00,26,10.40
2015,02,06,00,27,10.40
2015,02,06,00,28,10.40
2015,02,06,00,29,10.40
2015,02,06,00,30,10.40
2015,02,06,00,31,10.40
2015,02,06,00,32,10.40
2015,02,06,00,33,10.40
2015,02,06,00,34,10.40
2015,02,06,00,35,10.40
2015,02,06,00,36,10.40
2015,02,06,00,37,10.30
2015,02,06,00,38,10.30
2015,02,06,00,39,10.30
2015,02,06,00,40,10.30
2015,02,06,00,41,10.30
2015,02,06,00,42,10.30
2015,02,06,00,43,10.30
2015,02,06,00,44,10.30
2015,02,06,00,45,10.30
2015,02,06,00,46,10.30
2015,02,06,00,47,10.30
2015,02,06,00,48,10.30
2015,02,06,00,49,10.30
2015,02,06,00,50,10.30
2015,02,06,00,51,10.30
2015,02,06,00,52,10.30
2015,02,06,00,53,10.30
2015,02,06,00,54,10.30
2015,02,06,00,55,10.30
2015,02,06,00,56,10.30
2015,02,06,00,57,10.30
2015,02,06,00,58,10.30
2015,02,06,00,59,10.30
2015,02,06,01,00,10.30
2015,02,06,01,01,10.30
2015,02,06,01,02,10.30
2015,02,06,01,03,10.30
2015,02,06,01,04,10.30
2015,02,06,01,05,10.30
2015,02,06,01,06,10.30
2015,02,06,01,07,10.30
2015,02,06,01,08,10.30
2015,02,06,01,09,10.30
2015,02,06,01,10,10.30
2015,02,06,01,11,10.30
2015,02,06,01,12,10.30
2015,02,06,01,13,10.30
2015,02,06,01,14,10.30
2015,02,06,01,15,10.30
2015,02,06,01,16,10.30
2015,02,06,01,17,10.30
2015,02,06,01,18,10.30
2015,02,06,01,19,10.30
2015,02,06,01,20,10.30
2015,02,06,01,21,10.30
2015,02,06,01,22,10.30
2015,02,06,01,23,10.30
2015,02,06,01,24,10.30
2015,02,06,01,25,10.30
2015,02,06,01,26,10.30
2015,02,06,01,27,10.30
2015,02,06,01,28,10.30
2015,02,06,01,29,10.30
2015,02,06,01,30,10.30
2015,02,06,01,31,10.40
2015,02,06,01,32,10.40
2015,02,06,01,33,10.40
2015,02,06,01,34,10.40
2015,02,06,01,35,10.40
2015,02,06,01,36,10.40
2015,02,06,01,37,10.40
2015,02,06,01,38,10.30
2015,02,06,01,39,10.30
2015,02,06,01,40,10.30
2015,02,06,01,41,10.30
2015,02,06,01,42,10.30
2015,02,06,01,43,10.30
2015,02,06,01,44,10.30
2015,02,06,01,45,10.30
2015,02,06,01,46,10.30
2015,02,06,01,47,10.30
2015,02,06,01,48,10.30
2015,02,06,01,49,10.30
2015,02,06,01,50,10.30
2015,02,06,01,51,10.30
2015,02,06,01,52,10.30
2015,02,06,01,53,10.30
2015,02,06,01,54,10.30
2015,02,06,01,55,10.30
2015,02,06,01,56,10.30
2015,02,06,01,57,10.30
2015,02,06,01,58,10.30
2015,02,06,01,59,10.30
2015,02,06,02,00,10.30
2015,02,06,02,01,10.30
2015,02,06,02,02,10.30
2015,02,06,02,03,10.30
2015,02,06,02,04,10.30
2015,02,06,02,05,10.30
2015,02,06,02,06,10.30
2015,02,06,02,07,10.30
2015,02,06,02,08,10.30
2015,02,06,02,09,10.30
2015,02,06,02,10,10.30
2015,02,06,02,11,10.30
2015,02,06,02,12,10.30
2015,02,06,02,13,10.30
2015,02,06,02,14,10.30
2015,02,06,02,15,10.30
2015,02,06,02,16,10.30
2015,02,06,02,17,10.30
2015,02,06,02,18,10.30
2015,02,06,02,19,10.30
2015,02,06,02,20,10.30
2015,02,06,02,21,10.30
2015,02,06,02,22,10.30
2015,02,06,02,23,10.30
2015,02,06,02,24,10.30
2015,02,06,02,25,10.30
2015,02,06,02,26,10.30
2015,02,06,02,27,10.30
2015,02,06,02,28,10.30
2015,02,06,02,29,10.30
2015,02,06,02,30,10.30
2015,02,06,02,31,10.40
2015,02,06,02,32,10.40
2015,02,06,02,33,10.30
2015,02,06,02,34,10.30
2015,02,06,02,35,10.40
2015,02,06,02,36,10.40
2015,02,06,02,37,10.40
2015,02,06,02,38,10.40
2015,02,06,02,39,10.40
2015,02,06,02,40,10.40
2015,02,06,02,41,10.40
2015,02,06,02,42,10.40
2015,02,06,02,43,10.50
2015,02,06,02,44,10.50
2015,02,06,02,45,10.50
2015,02,06,02,46,10.50
2015,02,06,02,47,10.50
2015,02,06,02,48,10.50
2015,02,06,02,49,10.50
2015,02,06,02,50,10.50
2015,02,06,02,51,10.50
2015,02,06,02,52,10.50
2015,02,06,02,53,10.50
2015,02,06,02,54,10.50
2015,02,06,02,55,10.60
2015,02,06,02,56,10.50
2015,02,06,02,57,10.60
2015,02,06,02,58,10.50
2015,02,06,02,59,10.50
2015,02,06,03,00,10.50
2015,02,06,03,01,10.50
2015,02,06,03,02,10.50
2015,02,06,03,03,10.50
2015,02,06,03,04,10.60
2015,02,06,03,05,10.50
2015,02,06,03,06,10.60
2015,02,06,03,07,10.60
2015,02,06,03,08,10.60
2015,02,06,03,09,10.60
2015,02,06,03,10,10.60
2015,02,06,03,11,10.60
2015,02,06,03,12,10.60
2015,02,06,03,13,10.60
2015,02,06,03,14,10.60
2015,02,06,03,15,10.60
2015,02,06,03,16,10.60
2015,02,06,03,17,10.60
2015,02,06,03,18,10.60
2015,02,06,03,19,10.60
2015,02,06,03,20,10.60
2015,02,06,03,21,10.60
2015,02,06,03,22,10.50
2015,02,06,03,23,10.50
2015,02,06,03,24,10.50
2015,02,06,03,25,10.50
2015,02,06,03,26,10.50
2015,02,06,03,27,10.50
2015,02,06,03,28,10.50
2015,02,06,03,29,10.50
2015,02,06,03,30,10.50
2015,02,06,03,31,10.50
2015,02,06,03,32,10.40
2015,02,06,03,33,10.40
2015,02,06,03,34,10.40
2015,02,06,03,35,10.40
2015,02,06,03,36,10.40
2015,02,06,03,37,10.40
2015,02,06,03,38,10.40
2015,02,06,03,39,10.40
2015,02,06,03,40,10.40
2015,02,06,03,41,10.40
2015,02,06,03,42,10.40
2015,02,06,03,43,10.40
2015,02,06,03,44,10.40
2015,02,06,03,45,10.40
2015,02,06,03,46,10.40
2015,02,06,03,47,10.30
2015,02,06,03,48,10.30
2015,02,06,03,49,10.30
2015,02,06,03,50,10.30
2015,02,06,03,51,10.30
2015,02,06,03,52,10.30
2015,02,06,03,53,10.40
2015,02,06,03,54,10.40
2015,02,06,03,55,10.40
2015,02,06,03,56,10.40
2015,02,06,03,57,10.30
2015,02,06,03,58,10.30
2015,02,06,03,59,10.30
2015,02,06,04,00,10.30
2015,02,06,04,01,10.30
2015,02,06,04,02,10.30
2015,02,06,04,03,10.30
2015,02,06,04,04,10.30
2015,02,06,04,05,10.30
2015,02,06,04,06,10.30
2015,02,06,04,07,10.30
2015,02,06,04,08,10.30
2015,02,06,04,09,10.30
2015,02,06,04,10,10.30
2015,02,06,04,11,10.30
2015,02,06,04,12,10.30
2015,02,06,04,13,10.30
2015,02,06,04,14,10.30
2015,02,06,04,15,10.30
2015,02,06,04,16,10.30
2015,02,06,04,17,10.30
2015,02,06,04,18,10.30
2015,02,06,04,19,10.30
2015,02,06,04,20,10.30
2015,02,06,04,21,10.30
2015,02,06,04,22,10.30
2015,02,06,04,23,10.30
2015,02,06,04,24,10.30
2015,02,06,04,25,10.30
2015,02,06,04,26,10.30
2015,02,06,04,27,10.30
2015,02,06,04,28,10.30
2015,02,06,04,29,10.30
2015,02,06,04,30,10.30
2015,02,06,04,31,10.30
2015,02,06,04,32,10.30
2015,02,06,04,33,10.30
2015,02,06,04,34,10.30
2015,02,06,04,35,10.30
2015,02,06,04,36,10.30
2015,02,06,04,37,10.30
2015,02,06,04,38,10.30
2015,02,06,04,39,10.30
2015,02,06,04,40,10.30
2015,02,06,04,41,10.30
2015,02,06,04,42,10.30
2015,02,06,04,43,10.30
2015,02,06,04,44,10.30
2015,02,06,04,45,10.30
2015,02,06,04,46,10.30
2015,02,06,04,47,10.30
2015,02,06,04,48,10.30
2015,02,06,04,49,10.30
2015,02,06,04,50,10.30
2015,02,06,04,51,10.30
2015,02,06,04,52,10.30
2015,02,06,04,53,10.30
2015,02,06,04,54,10.30
2015,02,06,04,55,10.30
2015,02,06,04,56,10.30
2015,02,06,04,57,10.30
2015,02,06,04,58,10.30
2015,02,06,04,59,10.30
2015,02,06,05,00,10.30
2015,02,06,05,01,10.30
2015,02,06,05,02,10.30
2015,02,06,05,03,10.30
2015,02,06,05,04,10.30
2015,02,06,05,05,10.30
2015,02,06,05,06,10.30
2015,02,06,05,07,10.30
2015,02,06,05,08,10.30
2015,02,06,05,09,10.30
2015,02,06,05,10,10.30
2015,02,06,05,11,10.30
2015,02,06,05,12,10.30
2015,02,06,05,13,10.30
2015,02,06,05,14,10.40
2015,02,06,05,15,10.40
2015,02,06,05,16,10.30
2015,02,06,05,17,10.30
2015,02,06,05,18,10.40
2015,02,06,05,19,10.30
2015,02,06,05,20,10.30
2015,02,06,05,21,10.30
2015,02,06,05,22,10.30
2015,02,06,05,23,10.30
2015,02,06,05,24,10.30
2015,02,06,05,25,10.30
2015,02,06,05,26,10.30
2015,02,06,05,27,10.30
2015,02,06,05,28,10.30
2015,02,06,05,29,10.40
2015,02,06,05,30,10.30
2015,02,06,05,31,10.30
2015,02,06,05,32,10.40
2015,02,06,05,33,10.40
2015,02,06,05,34,10.40
2015,02,06,05,35,10.40
2015,02,06,05,36,10.30
2015,02,06,05,37,10.30
2015,02,06,05,38,10.30
2015,02,06,05,39,10.30
2015,02,06,05,40,10.30
2015,02,06,05,41,10.30
2015,02,06,05,42,10.30
2015,02,06,05,43,10.30
2015,02,06,05,44,10.30
2015,02,06,05,45,10.30
2015,02,06,05,46,10.30
2015,02,06,05,47,10.30
2015,02,06,05,48,10.30
2015,02,06,05,49,10.30
2015,02,06,05,50,10.30
2015,02,06,05,51,10.30
2015,02,06,05,52,10.30
2015,02,06,05,53,10.30
2015,02,06,05,54,10.30
2015,02,06,05,55,10.30
2015,02,06,05,56,10.30
2015,02,06,05,57,10.30
2015,02,06,05,58,10.30
2015,02,06,05,59,10.30
2015,02,06,06,00,10.30
2015,02,06,06,01,10.30
2015,02,06,06,02,10.30
2015,02,06,06,03,10.30
2015,02,06,06,04,10.30
2015,02,06,06,05,10.30
2015,02,06,06,06,10.30
2015,02,06,06,07,10.30
2015,02,06,06,08,10.30
2015,02,06,06,09,10.30
2015,02,06,06,10,10.30
2015,02,06,06,11,10.30
2015,02,06,06,12,10.30
2015,02,06,06,13,10.30
2015,02,06,06,14,10.30
2015,02,06,06,15,10.20
2015,02,06,06,16,10.20
2015,02,06,06,17,10.20
2015,02,06,06,18,10.20
2015,02,06,06,19,10.20
2015,02,06,06,20,10.20
2015,02,06,06,21,10.20
2015,02,06,06,22,10.20
2015,02,06,06,23,10.20
2015,02,06,06,24,10.20
2015,02,06,06,25,10.20
2015,02,06,06,26,10.20
2015,02,06,06,27,10.20
2015,02,06,06,28,10.20
2015,02,06,06,29,10.20
2015,02,06,06,30,10.20
2015,02,06,06,31,10.20
2015,02,06,06,32,10.20
2015,02,06,06,33,10.20
2015,02,06,06,34,10.20
2015,02,06,06,35,10.20
2015,02,06,06,36,10.20
2015,02,06,06,37,10.20
2015,02,06,06,38,10.20
2015,02,06,06,39,10.20
2015,02,06,06,40,10.20
2015,02,06,06,41,10.20
2015,02,06,06,42,10.20
2015,02,06,06,43,10.20
2015,02,06,06,44,10.20
2015,02,06,06,45,10.20
2015,02,06,06,46,10.20
2015,02,06,06,47,10.20
2015,02,06,06,48,10.20
2015,02,06,06,49,10.20
2015,02,06,06,50,10.20
2015,02,06,06,51,10.20
2015,02,06,06,52,10.20
2015,02,06,06,53,10.20
2015,02,06,06,54,10.20
2015,02,06,06,55,10.20
2015,02,06,06,56,10.20
2015,02,06,06,57,10.20
2015,02,06,06,58,10.20
2015,02,06,06,59,10.20
2015,02,06,07,00,10.20
2015,02,06,07,01,10.20
2015,02,06,07,02,10.20
2015,02,06,07,03,10.20
2015,02,06,07,04,10.20
2015,02,06,07,05,10.20
2015,02,06,07,06,10.20
2015,02,06,07,07,10.20
2015,02,06,07,08,10.20
2015,02,06,07,09,10.20
2015,02,06,07,10,10.20
2015,02,06,07,11,10.20
2015,02,06,07,12,10.20
2015,02,06,07,13,10.20
2015,02,06,07,14,10.20
2015,02,06,07,15,10.30
2015,02,06,07,16,10.30
2015,02,06,07,17,10.30
2015,02,06,07,18,10.30
2015,02,06,07,19,10.30
2015,02,06,07,20,10.30
2015,02,06,07,21,10.30
2015,02,06,07,22,10.30
2015,02,06,07,23,10.30
2015,02,06,07,24,10.30
2015,02,06,07,25,10.30
2015,02,06,07,26,10.30
2015,02,06,07,27,10.30
2015,02,06,07,28,10.30
2015,02,06,07,29,10.30
2015,02,06,07,30,10.30
2015,02,06,07,31,10.30
2015,02,06,07,32,10.30
2015,02,06,07,33,10.30
2015,02,06,07,34,10.30
2015,02,06,07,35,10.30
2015,02,06,07,36,10.40
2015,02,06,07,37,10.40
2015,02,06,07,38,10.40
2015,02,06,07,39,10.40
2015,02,06,07,40,10.40
2015,02,06,07,41,10.40
2015,02,06,07,42,10.40
2015,02,06,07,43,10.40
2015,02,06,07,44,10.40
2015,02,06,07,45,10.40
2015,02,06,07,46,10.40
2015,02,06,07,47,10.40
2015,02,06,07,48,10.40
2015,02,06,07,49,10.40
2015,02,06,07,50,10.50
2015,02,06,07,51,10.50
2015,02,06,07,52,10.50
2015,02,06,07,53,10.50
2015,02,06,07,54,10.50
2015,02,06,07,55,10.50
2015,02,06,07,56,10.50
2015,02,06,07,57,10.50
2015,02,06,07,58,10.50
2015,02,06,07,59,10.50
2015,02,06,08,00,10.50
2015,02,06,08,01,10.50
2015,02,06,08,02,10.50
2015,02,06,08,03,10.50
2015,02,06,08,04,10.50
2015,02,06,08,05,10.50
2015,02,06,08,06,10.50
2015,02,06,08,07,10.50
2015,02,06,08,08,10.50
2015,02,06,08,09,10.50
2015,02,06,08,10,10.60
2015,02,06,08,11,10.60
2015,02,06,08,12,10.60
2015,02,06,08,13,10.60
2015,02,06,08,14,10.60
2015,02,06,08,15,10.60
2015,02,06,08,16,10.60
2015,02,06,08,17,10.60
2015,02,06,08,18,10.60
2015,02,06,08,19,10.70
2015,02,06,08,20,10.70
2015,02,06,08,21,10.70
2015,02,06,08,22,10.70
2015,02,06,08,23,10.70
2015,02,06,08,24,10.70
2015,02,06,08,25,10.70
2015,02,06,08,26,10.70
2015,02,06,08,27,10.70
2015,02,06,08,28,10.70
2015,02,06,08,29,10.70
2015,02,06,08,30,10.70
2015,02,06,08,31,10.70
2015,02,06,08,32,10.70
2015,02,06,08,33,10.70
2015,02,06,08,34,10.70
2015,02,06,08,35,10.70
2015,02,06,08,36,10.70
2015,02,06,08,37,10.80
2015,02,06,08,38,10.80
2015,02,06,08,39,10.80
2015,02,06,08,40,10.80
2015,02,06,08,41,10.80
2015,02,06,08,42,10.80
2015,02,06,08,43,10.80
2015,02,06,08,44,10.80
2015,02,06,08,45,10.80
2015,02,06,08,46,10.80
2015,02,06,08,47,10.80
2015,02,06,08,48,10.80
2015,02,06,08,49,10.80
2015,02,06,08,50,10.80
2015,02,06,08,51,10.80
2015,02,06,08,52,10.80
2015,02,06,08,53,10.80
2015,02,06,08,54,10.80
2015,02,06,08,55,10.80
2015,02,06,08,56,10.80
2015,02,06,08,57,10.80
2015,02,06,08,58,10.80
2015,02,06,08,59,10.80
2015,02,06,09,00,10.80
2015,02,06,09,01,10.80
2015,02,06,09,02,10.80
2015,02,06,09,03,10.80
2015,02,06,09,04,10.80
2015,02,06,09,05,10.80
2015,02,06,09,06,10.80
2015,02,06,09,07,10.90
2015,02,06,09,08,10.90
2015,02,06,09,09,10.90
2015,02,06,09,10,10.90
2015,02,06,09,11,10.90
2015,02,06,09,12,10.90
2015,02,06,09,13,10.90
2015,02,06,09,14,10.90
2015,02,06,09,15,10.90
2015,02,06,09,16,10.90
2015,02,06,09,17,10.90
2015,02,06,09,18,10.90
2015,02,06,09,19,10.90
2015,02,06,09,20,10.90
2015,02,06,09,21,10.90
2015,02,06,09,22,11.00
2015,02,06,09,23,11.00
2015,02,06,09,24,11.00
2015,02,06,09,25,11.00
2015,02,06,09,26,11.00
2015,02,06,09,27,11.00
2015,02,06,09,28,11.00
2015,02,06,09,29,11.00
2015,02,06,09,30,11.00
2015,02,06,09,31,11.00
2015,02,06,09,32,11.00
2015,02,06,09,33,11.00
2015,02,06,09,34,11.00
2015,02,06,09,35,11.10
2015,02,06,09,36,11.10
2015,02,06,09,37,11.10
2015,02,06,09,38,11.10
2015,02,06,09,39,11.10
2015,02,06,09,40,11.20
2015,02,06,09,41,11.20
2015,02,06,09,42,11.20
2015,02,06,09,43,11.20
2015,02,06,09,44,11.20
2015,02,06,09,45,11.20
2015,02,06,09,46,11.20
2015,02,06,09,47,11.20
2015,02,06,09,48,11.20
2015,02,06,09,49,11.30
2015,02,06,09,50,11.30
2015,02,06,09,51,11.30
2015,02,06,09,52,11.30
2015,02,06,09,53,11.30
2015,02,06,09,54,11.30
2015,02,06,09,55,11.30
2015,02,06,09,56,11.30
2015,02,06,09,57,11.30
2015,02,06,09,58,11.40
2015,02,06,09,59,11.40
2015,02,06,10,00,11.40
2015,02,06,10,01,11.40
2015,02,06,10,02,11.40
2015,02,06,10,03,11.40
2015,02,06,10,04,11.40
2015,02,06,10,05,11.50
2015,02,06,10,06,11.50
2015,02,06,10,07,11.50
2015,02,06,10,08,11.50
2015,02,06,10,09,11.60
2015,02,06,10,10,11.60
2015,02,06,10,11,11.60
2015,02,06,10,12,11.60
2015,02,06,10,13,11.60
2015,02,06,10,14,11.60
2015,02,06,10,15,11.60
2015,02,06,10,16,11.70
2015,02,06,10,17,11.70
2015,02,06,10,18,11.70
2015,02,06,10,19,11.70
2015,02,06,10,20,11.70
2015,02,06,10,21,11.70
2015,02,06,10,22,11.80
2015,02,06,10,23,11.80
2015,02,06,10,24,11.80
2015,02,06,10,25,11.80
2015,02,06,10,26,11.80
2015,02,06,10,27,11.80
2015,02,06,10,28,11.80
2015,02,06,10,29,11.80
2015,02,06,10,30,11.80
2015,02,06,10,31,11.80
2015,02,06,10,32,11.80
2015,02,06,10,33,11.80
2015,02,06,10,34,11.90
2015,02,06,10,35,11.90
2015,02,06,10,36,11.90
2015,02,06,10,37,11.90
2015,02,06,10,38,11.90
2015,02,06,10,39,12.00
2015,02,06,10,40,12.00
2015,02,06,10,41,12.00
2015,02,06,10,42,12.10
2015,02,06,10,43,12.10
2015,02,06,10,44,12.10
2015,02,06,10,45,12.10
2015,02,06,10,46,12.10
2015,02,06,10,47,12.10
2015,02,06,10,48,12.10
2015,02,06,10,49,12.10
2015,02,06,10,50,12.10
2015,02,06,10,51,12.10
2015,02,06,10,52,12.10
2015,02,06,10,53,12.10
2015,02,06,10,54,12.10
2015,02,06,10,55,12.10
2015,02,06,10,56,12.10
2015,02,06,10,57,12.10
2015,02,06,10,58,12.10
2015,02,06,10,59,12.10
2015,02,06,11,00,12.10
2015,02,06,11,01,12.10
2015,02,06,11,02,12.10
2015,02,06,11,03,12.10
2015,02,06,11,04,12.10
2015,02,06,11,05,12.20
2015,02,06,11,06,12.10
2015,02,06,11,07,12.10
2015,02,06,11,08,12.20
2015,02,06,11,09,12.20
2015,02,06,11,10,12.20
2015,02,06,11,11,12.20
2015,02,06,11,12,12.20
2015,02,06,11,13,12.20
2015,02,06,11,14,12.20
2015,02,06,11,15,12.20
2015,02,06,11,16,12.20
2015,02,06,11,17,12.20
2015,02,06,11,18,12.20
2015,02,06,11,19,12.20
2015,02,06,11,20,12.20
2015,02,06,11,21,12.20
2015,02,06,11,22,12.20
2015,02,06,11,23,12.20
2015,02,06,11,24,12.20
2015,02,06,11,25,12.20
2015,02,06,11,26,12.20
2015,02,06,11,27,12.20
2015,02,06,11,28,12.20
2015,02,06,11,29,12.20
2015,02,06,11,30,12.20
2015,02,06,11,31,12.20
2015,02,06,11,32,12.20
2015,02,06,11,33,12.20
2015,02,06,11,34,12.20
2015,02,06,11,35,12.20
2015,02,06,11,36,12.30
2015,02,06,11,37,12.30
2015,02,06,11,38,12.30
2015,02,06,11,39,12.30
2015,02,06,11,40,12.30
2015,02,06,11,41,12.30
2015,02,06,11,42,12.30
2015,02,06,11,43,12.30
2015,02,06,11,44,12.30
2015,02,06,11,45,12.30
2015,02,06,11,46,12.30
2015,02,06,11,47,12.30
2015,02,06,11,48,12.30
2015,02,06,11,49,12.30
2015,02,06,11,50,12.30
2015,02,06,11,51,12.30
2015,02,06,11,52,12.40
2015,02,06,11,53,12.40
2015,02,06,11,54,12.40
2015,02,06,11,55,12.40
2015,02,06,11,56,12.40
2015,02,06,11,57,12.50
2015,02,06,11,58,12.50
2015,02,06,11,59,12.50
2015,02,06,12,00,12.50
2015,02,06,12,01,12.50
2015,02,06,12,02,12.50
2015,02,06,12,03,12.60
2015,02,06,12,04,12.60
2015,02,06,12,05,12.60
2015,02,06,12,06,12.60
2015,02,06,12,07,12.60
2015,02,06,12,08,12.60
2015,02,06,12,09,12.60
2015,02,06,12,10,12.60
2015,02,06,12,11,12.70
2015,02,06,12,12,12.70
2015,02,06,12,13,12.70
2015,02,06,12,14,12.70
2015,02,06,12,15,12.70
2015,02,06,12,16,12.70
2015,02,06,12,17,12.80
2015,02,06,12,18,12.80
2015,02,06,12,19,12.80
2015,02,06,12,20,12.80
2015,02,06,12,21,12.80
2015,02,06,12,22,12.80
2015,02,06,12,23,12.80
2015,02,06,12,24,12.80
2015,02,06,12,25,12.70
2015,02,06,12,26,12.70
2015,02,06,12,27,12.70
2015,02,06,12,28,12.70
2015,02,06,12,29,12.80
2015,02,06,12,30,12.80
2015,02,06,12,31,12.80
2015,02,06,12,32,12.80
2015,02,06,12,33,12.80
2015,02,06,12,34,12.80
2015,02,06,12,35,12.80
2015,02,06,12,36,12.80
2015,02,06,12,37,12.80
2015,02,06,12,38,12.80
2015,02,06,12,39,12.80
2015,02,06,12,40,12.90
2015,02,06,12,41,12.90
2015,02,06,12,42,12.90
2015,02,06,12,43,12.90
2015,02,06,12,44,12.90
2015,02,06,12,45,12.90
2015,02,06,12,46,12.90
2015,02,06,12,47,12.90
2015,02,06,12,48,12.90
2015,02,06,12,49,12.90
2015,02,06,12,50,12.90
2015,02,06,12,51,12.80
2015,02,06,12,52,12.80
2015,02,06,12,53,12.80
2015,02,06,12,54,12.70
2015,02,06,12,55,12.80
2015,02,06,12,56,12.80
2015,02,06,12,57,12.80
2015,02,06,12,58,12.80
2015,02,06,12,59,12.90
2015,02,06,13,00,12.90
2015,02,06,13,01,12.90
2015,02,06,13,02,12.80
2015,02,06,13,03,12.80
2015,02,06,13,04,12.80
2015,02,06,13,05,12.80
2015,02,06,13,06,12.80
2015,02,06,13,07,12.70
2015,02,06,13,08,12.70
2015,02,06,13,09,12.70
2015,02,06,13,10,12.60
2015,02,06,13,11,12.60
2015,02,06,13,12,12.70
2015,02,06,13,13,12.70
2015,02,06,13,14,12.70
2015,02,06,13,15,12.70
2015,02,06,13,16,12.70
2015,02,06,13,17,12.70
2015,02,06,13,18,12.70
2015,02,06,13,19,12.70
2015,02,06,13,20,12.70
2015,02,06,13,21,12.70
2015,02,06,13,22,12.70
2015,02,06,13,23,12.70
2015,02,06,13,24,12.60
2015,02,06,13,25,12.60
2015,02,06,13,26,12.50
2015,02,06,13,27,12.50
2015,02,06,13,28,12.60
2015,02,06,13,29,12.60
2015,02,06,13,30,12.60
2015,02,06,13,31,12.60
2015,02,06,13,32,12.70
2015,02,06,13,33,12.70
2015,02,06,13,34,12.80
2015,02,06,13,35,12.80
2015,02,06,13,36,12.70
2015,02,06,13,37,12.70
2015,02,06,13,38,12.80
2015,02,06,13,39,12.80
2015,02,06,13,40,12.80
2015,02,06,13,41,12.80
2015,02,06,13,42,12.80
2015,02,06,13,43,12.80
2015,02,06,13,44,12.80
2015,02,06,13,45,12.80
2015,02,06,13,46,12.80
2015,02,06,13,47,12.80
2015,02,06,13,48,12.80
2015,02,06,13,49,12.80
2015,02,06,13,50,12.80
2015,02,06,13,51,12.80
2015,02,06,13,52,12.80
2015,02,06,13,53,12.80
2015,02,06,13,54,12.80
2015,02,06,13,55,12.80
2015,02,06,13,56,12.80
2015,02,06,13,57,12.90
2015,02,06,13,58,12.90
2015,02,06,13,59,12.90
2015,02,06,14,00,12.90
2015,02,06,14,01,12.90
2015,02,06,14,02,12.90
2015,02,06,14,03,12.90
2015,02,06,14,04,12.90
2015,02,06,14,05,12.90
2015,02,06,14,06,12.90
2015,02,06,14,07,12.90
2015,02,06,14,08,12.90
2015,02,06,14,09,12.90
2015,02,06,14,10,12.90
2015,02,06,14,11,12.90
2015,02,06,14,12,12.90
2015,02,06,14,13,12.80
2015,02,06,14,14,12.80
2015,02,06,14,15,12.80
2015,02,06,14,16,12.80
2015,02,06,14,17,12.80
2015,02,06,14,18,12.80
2015,02,06,14,19,12.80
2015,02,06,14,20,12.80
2015,02,06,14,21,12.80
2015,02,06,14,22,12.80
2015,02,06,14,23,12.80
2015,02,06,14,24,12.80
2015,02,06,14,25,12.80
2015,02,06,14,26,12.80
2015,02,06,14,27,12.70
2015,02,06,14,28,12.70
2015,02,06,14,29,12.70
2015,02,06,14,30,12.70
2015,02,06,14,31,12.70
2015,02,06,14,32,12.70
2015,02,06,14,33,12.70
2015,02,06,14,34,12.70
2015,02,06,14,35,12.70
2015,02,06,14,36,12.70
2015,02,06,14,37,12.70
2015,02,06,14,38,12.80
2015,02,06,14,39,12.70
2015,02,06,14,40,12.80
2015,02,06,14,41,12.80
2015,02,06,14,42,12.80
2015,02,06,14,43,12.80
2015,02,06,14,44,12.80
2015,02,06,14,45,12.80
2015,02,06,14,46,12.80
2015,02,06,14,47,12.80
2015,02,06,14,48,12.80
2015,02,06,14,49,12.80
2015,02,06,14,50,12.80
2015,02,06,14,51,12.80
2015,02,06,14,52,12.80
2015,02,06,14,53,12.80
2015,02,06,14,54,12.80
2015,02,06,14,55,12.70
2015,02,06,14,56,12.70
2015,02,06,14,57,12.70
2015,02,06,14,58,12.70
2015,02,06,14,59,12.70
2015,02,06,15,00,12.70
2015,02,06,15,01,12.70
2015,02,06,15,02,12.80
2015,02,06,15,03,12.80
2015,02,06,15,04,12.80
2015,02,06,15,05,12.80
2015,02,06,15,06,12.80
2015,02,06,15,07,12.80
2015,02,06,15,08,12.80
2015,02,06,15,09,12.80
2015,02,06,15,10,12.80
2015,02,06,15,11,12.80
2015,02,06,15,12,12.80
2015,02,06,15,13,12.80
2015,02,06,15,14,12.70
2015,02,06,15,15,12.70
2015,02,06,15,16,12.70
2015,02,06,15,17,12.70
2015,02,06,15,18,12.70
2015,02,06,15,19,12.60
2015,02,06,15,20,12.60
2015,02,06,15,21,12.60
2015,02,06,15,22,12.60
2015,02,06,15,23,12.60
2015,02,06,15,24,12.50
2015,02,06,15,25,12.50
2015,02,06,15,26,12.50
2015,02,06,15,27,12.50
2015,02,06,15,28,12.50
2015,02,06,15,29,12.50
2015,02,06,15,30,12.50
2015,02,06,15,31,12.50
2015,02,06,15,32,12.50
2015,02,06,15,33,12.50
2015,02,06,15,34,12.50
2015,02,06,15,35,12.60
2015,02,06,15,36,12.60
2015,02,06,15,37,12.60
2015,02,06,15,38,12.60
2015,02,06,15,39,12.60
2015,02,06,15,40,12.60
2015,02,06,15,41,12.60
2015,02,06,15,42,12.60
2015,02,06,15,43,12.60
2015,02,06,15,44,12.60
2015,02,06,15,45,12.60
2015,02,06,15,46,12.60
2015,02,06,15,47,12.70
2015,02,06,15,48,12.60
2015,02,06,15,49,12.60
2015,02,06,15,50,12.60
2015,02,06,15,51,12.60
2015,02,06,15,52,12.60
2015,02,06,15,53,12.60
2015,02,06,15,54,12.60
2015,02,06,15,55,12.60
2015,02,06,15,56,12.60
2015,02,06,15,57,12.60
2015,02,06,15,58,12.60
2015,02,06,15,59,12.50
2015,02,06,16,00,12.50
2015,02,06,16,01,12.50
2015,02,06,16,02,12.50
2015,02,06,16,03,12.50
2015,02,06,16,04,12.50
2015,02,06,16,05,12.50
2015,02,06,16,06,12.40
2015,02,06,16,07,12.50
2015,02,06,16,08,12.40
2015,02,06,16,09,12.40
2015,02,06,16,10,12.40
2015,02,06,16,11,12.40
2015,02,06,16,12,12.40
2015,02,06,16,13,12.40
2015,02,06,16,14,12.30
2015,02,06,16,15,12.30
2015,02,06,16,16,12.30
2015,02,06,16,17,12.30
2015,02,06,16,18,12.30
2015,02,06,16,19,12.30
2015,02,06,16,20,12.30
2015,02,06,16,21,12.30
2015,02,06,16,22,12.30
2015,02,06,16,23,12.30
2015,02,06,16,24,12.30
2015,02,06,16,25,12.30
2015,02,06,16,26,12.30
2015,02,06,16,27,12.30
2015,02,06,16,28,12.30
2015,02,06,16,29,12.20
2015,02,06,16,30,12.20
2015,02,06,16,31,12.20
2015,02,06,16,32,12.20
2015,02,06,16,33,12.10
2015,02,06,16,34,12.10
2015,02,06,16,35,12.10
2015,02,06,16,36,12.10
2015,02,06,16,37,12.00
2015,02,06,16,38,12.00
2015,02,06,16,39,12.00
2015,02,06,16,40,11.90
2015,02,06,16,41,11.90
2015,02,06,16,42,11.90
2015,02,06,16,43,11.90
2015,02,06,16,44,11.80
2015,02,06,16,45,11.80
2015,02,06,16,46,11.80
2015,02,06,16,47,11.80
2015,02,06,16,48,11.70
2015,02,06,16,49,11.70
2015,02,06,16,50,11.70
2015,02,06,16,51,11.70
2015,02,06,16,52,11.70
2015,02,06,16,53,11.70
2015,02,06,16,54,11.60
2015,02,06,16,55,11.60
2015,02,06,16,56,11.60
2015,02,06,16,57,11.60
2015,02,06,16,58,11.60
2015,02,06,16,59,11.60
2015,02,06,17,00,11.60
2015,02,06,17,01,11.60
2015,02,06,17,02,11.50
2015,02,06,17,03,11.50
2015,02,06,17,04,11.50
2015,02,06,17,05,11.40
2015,02,06,17,06,11.40
2015,02,06,17,07,11.30
2015,02,06,17,08,11.30
2015,02,06,17,09,11.30
2015,02,06,17,10,11.30
2015,02,06,17,11,11.30
2015,02,06,17,12,11.30
2015,02,06,17,13,11.30
2015,02,06,17,14,11.30
2015,02,06,17,15,11.30
2015,02,06,17,16,11.30
2015,02,06,17,17,11.30
2015,02,06,17,18,11.30
2015,02,06,17,19,11.30